Wind_Speed
88 84 79 77 77 79 79 79 81 80 80 76 71 68 72 73 67 67 68 67 67 70 68 61 62 65 66 68 65 65 66 65 66 66 64 63 63 63 63 63 64 65 66 66
94 82 82 86 83 78 77 79 77 85 85 82 77 72 72 72 73 74 72 70 72 73 75 67 68 72 72 71 70 70 69 68 67 66 65 66 66 66 64 67 69 71 71 72
97 92 88 86 80 78 79 78 80 79 81 79 75 69 72 78 72 70 73 75 76 78 80 73 76 78 76 75 73 73 73 71 70 68 69 68 67 69 71 72 73 76 77 77
98 93 89 88 84 82 82 82 86 84 83 76 76 66 65 71 66 61 67 76 80 82 81 80 79 79 78 77 76 75 74 72 70 71 72 73 73 74 75 75 76 78 79 80
97 96 91 89 87 90 83 86 86 88 87 85 80 79 65 68 67 66 71 69 68 68 69 69 70 71 72 72 71 73 73 71 72 74 75 76 78 79 79 79 79 81 82 83
103 97 94 87 90 92 91 88 88 91 94 90 82 83 70 68 72 74 70 71 71 73 73 71 73 76 76 75 75 74 74 75 77 78 80 80 80 81 83 83 84 84 84 86
103 102 103 96 95 96 95 94 95 96 95 90 89 91 76 76 76 78 77 75 78 77 75 76 78 79 80 81 81 80 80 80 81 82 83 84 85 87 89 89 89 89 90 93
108 104 102 101 100 101 103 101 103 101 96 95 98 90 82 86 85 83 84 83 83 82 82 84 85 84 86 85 85 85 86 86 87 87 88 90 91 92 94 96 96 98 101 102
107 107 105 106 107 106 104 105 107 109 107 104 96 87 85 85 88 89 87 86 87 88 89 91 92 94 95 95 94 92 92 92 94 95 96 97 98 100 101 102 103 104 106 107
113 111 111 110 113 112 108 110 111 109 110 111 101 97 86 86 89 92 92 93 94 95 98 100 102 102 103 101 100 100 99 98 100 102 102 104 104 105 106 107 109 109 110 112
120 119 116 117 112 115 115 114 116 116 113 111 107 102 94 93 95 97 100 100 99 99 99 102 106 108 106 105 105 107 108 109 110 110 109 109 109 110 111 113 112 112 114 115
124 125 124 121 121 122 121 119 117 116 116 118 117 107 98 100 103 107 104 105 107 108 109 110 111 111 110 111 111 111 114 114 113 112 112 114 114 116 117 116 118 121 120 124
126 126 126 124 123 123 123 122 122 121 122 124 123 107 103 104 109 110 112 113 114 113 112 113 114 115 114 116 116 115 114 114 116 116 117 118 120 122 124 125 126 127 128 129
132 133 129 126 122 128 129 128 131 131 132 123 125 110 109 112 111 115 120 118 116 118 120 120 120 120 121 118 117 120 120 120 121 122 122 125 128 128 129 131 132 134 134 134
128 134 132 129 133 136 133 134 136 136 133 135 126 126 109 114 116 123 123 123 127 128 127 125 124 124 124 122 123 123 124 124 124 125 125 128 132 135 137 140 140 140 141 139
121 123 131 135 135 137 140 139 139 134 130 135 131 131 118 123 124 125 125 130 133 133 129 127 128 128 130 127 127 128 127 127 127 129 131 133 136 139 139 140 140 142 143 142
130 127 131 140 140 144 146 135 136 141 140 137 138 130 128 124 126 128 129 137 137 134 134 134 131 131 133 133 133 133 134 134 134 135 135 137 140 141 141 143 145 142 141 140
137 136 135 134 135 144 138 135 138 140 140 140 142 138 129 127 129 131 134 136 138 141 139 137 136 136 136 138 137 138 139 137 137 140 142 143 144 145 143 141 141 138 139 142
136 140 142 143 139 138 135 126 128 136 142 142 144 139 139 137 137 135 131 139 144 144 144 142 141 142 143 146 145 144 142 139 139 140 140 142 143 142 141 141 142 145 145 147
134 137 143 146 147 148 136 131 134 140 149 137 139 145 145 145 147 139 140 144 143 146 146 146 145 145 146 146 147 145 143 142 141 141 141 140 141 143 145 148 152 151 151 150
138 138 140 142 146 149 141 140 145 152 143 139 143 148 150 149 148 147 147 147 148 150 153 153 152 149 148 149 148 147 146 143 142 142 145 146 150 152 153 154 153 151 153 152
134 141 142 144 147 146 132 139 145 148 153 152 149 150 151 150 148 148 149 149 151 151 155 157 158 156 154 150 149 148 148 150 149 150 153 155 156 155 153 156 156 155 151 139
105 114 124 134 142 147 144 147 145 147 148 149 150 152 153 157 157 157 157 156 154 153 156 156 156 157 157 158 156 155 154 154 155 153 154 158 157 159 155 149 145 140 131 129
106 110 114 119 114 116 120 122 129 139 149 156 160 159 156 155 153 153 155 155 156 157 156 158 158 157 159 157 154 156 153 155 154 156 157 152 146 139 134 131 129 124 123 118
89 93 97 92 90 100 98 103 109 115 120 123 126 131 136 142 147 153 158 161 163 163 161 162 164 165 167 165 163 161 155 152 147 138 135 133 128 123 120 117 116 110 107 107
77 76 79 82 88 89 80 81 83 90 100 109 114 117 121 126 126 129 130 130 130 132 132 131 131 129 127 126 127 125 124 122 122 123 123 120 113 109 105 102 101 101 102 103
Wind_Direction
232 233 236 239 242 243 244 243 243 245 246 247 248 248 250 251 251 254 257 259 261 263 266 267 269 268 268 270 273 275 277 277 279 280 280 282 284 290 291 290 290 292 293 293
232 232 235 241 240 241 246 247 247 247 248 250 251 251 252 255 254 254 257 260 261 262 264 265 266 267 268 271 273 275 276 277 279 280 283 286 290 289 288 291 294 295 295 295
232 233 237 235 239 242 245 247 247 248 250 251 252 253 256 257 258 258 258 259 261 262 264 265 265 266 268 270 272 273 274 276 277 280 284 285 285 287 289 291 291 292 294 295
231 233 237 237 241 243 243 246 247 247 248 250 250 246 256 262 264 265 268 263 259 260 263 264 266 268 270 272 274 276 277 277 278 279 280 281 283 285 287 289 291 292 293 293
231 233 235 239 242 243 242 249 248 248 248 247 250 247 251 259 264 263 262 263 265 265 270 271 272 273 273 273 273 274 273 274 276 278 279 281 283 286 288 289 291 292 293 294
232 234 238 240 242 244 244 246 248 250 250 249 250 252 245 256 258 261 262 262 263 266 268 271 272 270 269 270 271 273 274 276 277 278 279 282 284 285 287 288 289 291 292 292
233 235 238 238 241 242 244 244 247 249 251 251 250 249 245 251 257 259 261 262 265 266 268 272 273 272 272 271 272 272 274 275 275 277 279 281 283 285 285 287 287 287 289 290
235 236 238 240 241 241 242 243 245 246 248 250 251 252 252 252 254 256 260 263 264 266 270 273 275 276 273 272 270 270 271 273 275 277 279 280 282 283 285 286 287 289 290 292
237 238 240 240 242 243 244 245 248 247 248 248 248 253 254 255 257 259 258 262 264 267 268 269 269 268 269 269 270 271 272 275 276 277 279 280 282 284 286 287 288 289 290 292
237 239 240 241 243 244 245 246 248 250 250 251 250 248 249 252 254 260 262 261 263 264 266 268 269 270 272 273 273 274 274 275 276 277 280 281 283 285 287 288 289 290 291 292
239 240 240 240 242 243 244 245 247 248 249 249 251 250 249 250 253 256 258 260 261 263 265 265 267 268 269 271 272 272 273 275 277 278 279 281 283 285 288 289 289 291 291 291
239 240 240 240 240 242 245 246 249 252 251 252 251 250 255 256 256 254 257 260 260 260 261 263 266 269 272 273 273 274 277 278 279 280 281 283 285 288 289 289 290 291 291 293
239 240 241 242 242 245 246 248 251 253 253 253 254 252 256 257 258 259 259 260 260 262 263 265 267 270 271 272 274 276 277 278 278 280 283 285 287 287 288 288 290 291 293 294
241 241 242 244 245 245 246 248 249 251 253 256 257 257 255 257 259 259 259 260 261 262 263 264 266 268 270 274 277 277 278 279 280 282 283 284 285 287 287 289 291 292 292 293
243 243 242 243 245 246 247 248 250 252 255 256 256 258 258 261 261 261 262 263 262 262 263 265 268 269 270 274 275 276 278 280 280 281 283 284 285 286 287 288 289 290 292 293
239 242 246 244 244 246 247 247 249 253 256 257 259 259 260 259 260 262 263 264 264 264 267 269 269 271 272 273 275 276 278 280 280 280 282 283 284 285 287 288 289 291 292 294
239 240 243 245 246 247 247 249 251 251 254 257 258 259 258 259 258 260 262 263 264 267 268 268 270 271 273 274 275 277 277 278 279 281 282 282 283 285 287 288 289 291 291 292
238 240 242 244 245 247 250 250 252 254 253 254 256 257 260 262 260 260 260 263 265 265 267 269 271 272 273 273 273 273 276 277 279 280 282 282 283 285 287 288 288 290 291 292
241 242 243 243 245 247 248 251 254 255 255 256 258 259 258 258 260 260 263 263 263 266 267 267 268 270 271 272 274 275 277 278 279 280 281 282 283 285 287 286 287 290 293 294
245 245 246 246 247 247 249 250 251 253 254 256 259 259 260 260 260 261 261 263 265 266 267 269 269 270 272 273 274 276 278 280 281 281 280 281 283 285 287 287 288 292 293 294
246 248 250 250 251 250 249 251 251 254 257 255 257 259 261 261 262 262 262 263 265 267 268 268 269 270 272 273 275 276 278 278 279 280 281 282 283 285 287 286 288 290 291 292
249 250 251 251 252 253 253 253 255 255 257 257 256 258 260 261 262 263 263 263 265 266 268 269 270 271 272 273 274 276 278 279 280 282 283 283 284 284 285 286 287 288 291 290
252 253 254 255 256 256 256 255 255 255 256 258 258 259 260 262 263 264 265 265 266 267 268 269 271 273 274 275 276 278 278 277 279 280 280 282 282 283 286 286 288 288 287 288
260 258 257 257 258 260 260 260 262 261 262 261 259 259 260 262 263 264 265 266 267 268 269 270 271 272 273 274 275 274 275 277 279 281 282 284 283 284 283 284 284 284 285 284
259 261 262 264 263 262 265 264 259 258 260 262 262 262 262 262 263 264 264 265 266 266 267 268 268 269 270 272 274 275 275 277 278 280 280 281 281 282 283 282 282 281 282 284
265 268 270 270 272 274 271 267 263 261 261 260 259 260 261 262 263 263 263 265 266 267 268 269 270 271 272 273 273 274 274 276 277 278 279 280 279 279 279 278 278 279 279 282
Height
10669 10679 10697 10700 10704 10709 10714 10722 10728 10732 10735 10744 10754 10760 10760 10762 10774 10777 10776 10779 10782 10779 10781 10793 10793 10789 10787 10785 10792 10792 10792 10792 10793 10793 10792 10790 10788 10785 10780 10778 10776 10775 10772 10773
10652 10674 10676 10679 10688 10697 10704 10710 10717 10717 10723 10730 10739 10749 10749 10753 10762 10763 10766 10770 10768 10767 10764 10778 10775 10770 10770 10774 10776 10778 10778 10778 10778 10777 10775 10774 10772 10769 10769 10765 10758 10755 10754 10752
10640 10654 10656 10664 10674 10685 10692 10697 10700 10704 10705 10714 10724 10739 10742 10737 10748 10754 10756 10755 10754 10750 10748 10760 10756 10753 10757 10760 10762 10762 10762 10763 10763 10762 10760 10759 10757 10753 10751 10750 10747 10742 10737 10734
10625 10637 10644 10654 10665 10669 10677 10677 10679 10686 10690 10703 10707 10728 10732 10729 10736 10742 10741 10739 10734 10734 10736 10737 10738 10739 10741 10744 10746 10747 10748 10748 10747 10746 10744 10742 10741 10739 10735 10734 10730 10726 10723 10719
10619 10617 10627 10637 10649 10648 10662 10658 10666 10667 10674 10681 10695 10705 10726 10721 10721 10725 10721 10722 10725 10723 10721 10721 10723 10725 10727 10729 10730 10730 10730 10732 10731 10729 10726 10725 10723 10721 10718 10716 10713 10709 10704 10701
10600 10610 10616 10630 10628 10632 10640 10642 10646 10648 10653 10670 10682 10685 10719 10710 10704 10702 10707 10708 10708 10707 10706 10708 10708 10708 10709 10710 10711 10712 10713 10714 10712 10710 10707 10706 10705 10703 10700 10698 10695 10692 10689 10686
10579 10591 10594 10604 10610 10614 10622 10627 10624 10624 10636 10660 10659 10657 10706 10692 10691 10687 10689 10693 10689 10691 10694 10694 10691 10691 10693 10692 10693 10694 10694 10694 10692 10690 10689 10688 10686 10684 10681 10680 10676 10672 10668 10665
10566 10578 10585 10590 10590 10593 10593 10598 10604 10607 10618 10627 10628 10660 10683 10681 10674 10674 10670 10671 10672 10675 10676 10675 10674 10674 10670 10672 10673 10674 10674 10675 10673 10672 10670 10667 10666 10664 10661 10659 10656 10651 10648 10643
10546 10557 10564 10572 10569 10573 10584 10591 10582 10581 10594 10605 10620 10645 10657 10664 10660 10651 10657 10658 10657 10658 10656 10654 10653 10650 10648 10651 10654 10656 10656 10655 10653 10652 10650 10647 10645 10643 10640 10637 10635 10632 10627 10622
10530 10537 10545 10548 10553 10560 10569 10565 10561 10572 10577 10583 10612 10619 10637 10638 10638 10635 10640 10638 10639 10640 10636 10633 10632 10628 10629 10633 10635 10635 10633 10632 10631 10631 10631 10627 10623 10620 10617 10614 10611 10607 10603 10599
10502 10510 10519 10527 10544 10537 10539 10542 10543 10542 10551 10565 10585 10599 10618 10622 10621 10618 10617 10616 10618 10617 10616 10613 10609 10607 10611 10614 10616 10614 10610 10609 10610 10610 10607 10603 10600 10598 10595 10591 10587 10582 10577 10572
10476 10480 10489 10507 10512 10514 10516 10526 10522 10530 10545 10540 10547 10579 10602 10602 10599 10594 10596 10594 10593 10592 10592 10589 10587 10589 10592 10591 10590 10591 10589 10591 10589 10585 10581 10579 10578 10575 10571 10565 10561 10556 10551 10546
10454 10458 10469 10484 10497 10506 10507 10511 10506 10506 10501 10505 10517 10574 10571 10575 10576 10573 10572 10570 10569 10571 10571 10571 10569 10568 10566 10564 10569 10567 10565 10565 10561 10559 10558 10556 10553 10547 10543 10538 10533 10527 10522 10517
10418 10436 10456 10475 10486 10470 10475 10483 10481 10477 10472 10504 10499 10549 10557 10552 10548 10546 10542 10545 10549 10547 10544 10546 10543 10543 10545 10548 10547 10540 10538 10537 10536 10535 10534 10530 10525 10520 10514 10508 10502 10497 10492 10486
10408 10424 10433 10449 10446 10444 10454 10451 10447 10448 10477 10465 10496 10495 10548 10526 10531 10519 10517 10519 10513 10511 10514 10521 10524 10522 10519 10525 10518 10512 10513 10514 10513 10511 10508 10502 10496 10490 10484 10479 10474 10467 10463 10455
10387 10401 10399 10415 10421 10414 10415 10420 10434 10453 10456 10447 10467 10470 10514 10497 10496 10490 10499 10486 10477 10479 10491 10496 10495 10495 10491 10493 10490 10488 10490 10490 10487 10484 10481 10475 10467 10459 10455 10451 10444 10437 10431 10424
10368 10376 10378 10384 10395 10377 10373 10422 10425 10420 10430 10436 10426 10455 10456 10470 10468 10463 10474 10448 10449 10461 10460 10461 10465 10465 10462 10464 10465 10464 10461 10462 10459 10456 10451 10443 10435 10430 10426 10419 10413 10404 10399 10393
10345 10350 10348 10357 10356 10344 10388 10396 10398 10399 10405 10404 10396 10411 10438 10441 10436 10431 10439 10431 10428 10418 10428 10437 10439 10440 10436 10431 10433 10431 10431 10434 10431 10423 10419 10412 10405 10400 10394 10386 10379 10374 10367 10362
10323 10323 10324 10327 10336 10335 10353 10392 10380 10357 10362 10366 10375 10400 10402 10395 10387 10405 10419 10398 10391 10397 10399 10405 10406 10405 10403 10398 10400 10401 10402 10402 10398 10392 10386 10379 10373 10367 10359 10354 10347 10341 10336 10329
10300 10300 10297 10304 10303 10311 10355 10362 10342 10327 10312 10374 10357 10344 10355 10357 10358 10386 10375 10365 10367 10362 10365 10369 10374 10370 10368 10369 10368 10369 10369 10367 10363 10356 10351 10345 10339 10332 10326 10318 10315 10307 10301 10293
10273 10276 10273 10277 10276 10286 10327 10334 10314 10283 10320 10335 10323 10311 10317 10324 10323 10339 10340 10337 10333 10332 10332 10331 10334 10339 10339 10335 10337 10337 10334 10332 10329 10325 10317 10312 10306 10299 10291 10284 10282 10272 10266 10257
10249 10249 10254 10249 10245 10252 10299 10286 10280 10286 10279 10288 10299 10291 10282 10282 10288 10294 10301 10307 10304 10303 10298 10296 10294 10295 10297 10302 10305 10307 10303 10297 10292 10288 10283 10277 10272 10262 10255 10250 10245 10239 10232 10223
10227 10226 10225 10222 10221 10228 10253 10251 10250 10238 10237 10243 10250 10252 10250 10250 10254 10254 10255 10262 10271 10271 10266 10264 10261 10261 10263 10263 10268 10269 10268 10260 10254 10252 10249 10242 10235 10224 10222 10212 10208 10203 10196 10190
10198 10192 10189 10182 10207 10206 10206 10215 10217 10212 10204 10206 10206 10211 10218 10218 10223 10224 10221 10222 10224 10226 10230 10228 10227 10228 10223 10224 10226 10222 10219 10218 10218 10213 10210 10205 10200 10191 10183 10179 10176 10170 10165 10158
10169 10165 10163 10173 10177 10162 10179 10178 10177 10173 10170 10169 10169 10172 10175 10177 10180 10179 10181 10181 10182 10183 10188 10189 10191 10193 10191 10192 10188 10185 10185 10181 10178 10176 10171 10168 10163 10159 10152 10149 10143 10139 10133 10128
10150 10153 10151 10154 10144 10137 10143 10136 10137 10139 10137 10135 10134 10136 10138 10140 10145 10145 10143 10144 10147 10145 10145 10149 10151 10151 10150 10151 10148 10148 10148 10147 10143 10143 10140 10137 10131 10125 10122 10118 10114 10110 10106 10102